Regional Weather Roundup
Issued by NWS Cleveland, OH

Home | Current Version | Previous Version | Graphics & Text | Print | Product List | Glossary On
Versions: 1 2 3 4 5 6 7 8 9 10 11 12 13 14 15 16 17 18 19 20 21 22 23 24 25 26 27 28 29 30 31 32 33 34 35 36 37 38 39 40 41 42 43 44 45 46 47 48 49 50
000
ASUS41 KCLE 260402
RWRCLE
OHIO REGIONAL WEATHER ROUNDUP
NATIONAL WEATHER SERVICE CLEVELAND, OH
1200 AM EDT THU MAY 26 2016

NOTE: "FAIR" INDICATES FEW OR NO CLOUDS BELOW 12,000 FEET WITH NO
SIGNIFICANT WEATHER AND/OR OBSTRUCTIONS TO VISIBILITY.

OHZ001>008-015>018-024>027-034-035-043-044-260500-
   NORTHWEST OHIO

CITY           SKY/WX    TMP DP  RH WIND       PRES   REMARKS
DEFIANCE       CLEAR     76  60  57 S10       29.99F
FINDLAY        CLEAR     71  58  63 S10       30.02F
TOLEDO EXPRESS PTCLDY    73  59  61 S7        29.99F
TOLEDO EXEC    PTCLDY    73  58  59 S12       30.01F
LIMA           CLEAR     70  61  73 S7        30.03F
$$

OHZ009>014-019>023-028>033-038-089-260500-
   NORTHEAST OHIO

CITY           SKY/WX    TMP DP  RH WIND       PRES   REMARKS
CLE-HOPKINS    MOCLDY    74  56  53 S9        30.08F
CLE-LAKEFRONT  CLOUDY    76  56  49 S13       30.05F
CUY CO. ARPT   NOT AVBL
LORAIN-ELYRIA  PTCLDY    70  57  63 S10       30.06F
ASHTABULA      CLOUDY    71  57  61 S5        30.09F
AKRON-CANTON   CLOUDY    70  56  61 S7        30.10F
WOOSTER        CLOUDY    66  57  72 S7        30.10F
MANSFIELD      PTCLDY    68  58  70 SE8       30.08F
YOUNGSTOWN     CLOUDY    71  55  56 S5        30.11F
$$

OHZ042-051>053-060>062-070>072-077>081-260500-
  SOUTHWEST OHIO

CITY           SKY/WX    TMP DP  RH WIND       PRES   REMARKS
CINC-COVINGTON MOCLDY    69  64  84 S6        30.07F
CINC-LUNKEN    CLOUDY    67  65  93 CALM      30.07F
HAMILTON       CLOUDY    73  64  73 S5        30.06F
DAYTON         PTCLDY    72  62  71 S8        30.06F
WRIGHT-PAT AFB PTCLDY    71  64  80 S7        30.05F
DAYTON GENERAL CLOUDY    72  62  71 S6        30.06F
WILMINGTON     PTCLDY    68  63  84 S7        30.08F
$$

OHZ036-037-039>041-045>050-054>059-063>069-073>076-082>088-260500-
  CENTRAL AND SOUTHEAST OHIO

CITY           SKY/WX    TMP DP  RH WIND       PRES   REMARKS
COLUMBUS       CLOUDY    71  61  70 S8        30.07F
OSU AIRPORT    NOT AVBL
BOLTON FIELD   NOT AVBL
RICKENBACK AFB NOT AVBL
NEWARK         CLOUDY    72  61  68 S3        30.08F
MARION         CLEAR     67  58  72 S7        30.07F
LANCASTER      CLOUDY    71  60  68 S6        30.09S
ZANESVILLE     CLOUDY    72  60  66 S5        30.10S
NEW PHILLY     CLOUDY    71  59  65 CALM      30.10F
$$




USA.gov is the U.S. government's official web portal to all federal, state and local government web resources and services.